This is the latest recevied weather packets stored in our database for station/object OK1FRN-6. If no packets are shown the sender has not sent any weather packets the latest 10 day(s).
| Time | Temp. | Humidity | Pressure | Rain* | Wind** | Luminosity | Snow |
|---|---|---|---|---|---|---|---|
| 1777460724 | 18.89° C | 24% | 1025.9 hPa | - | - | - | - |
| 1777460418 | 18.89° C | 24% | 1025.9 hPa | - | - | - | - |
| 1777460111 | 19.44° C | 25% | 1026 hPa | - | - | - | - |
| 1777459805 | 18.89° C | 25% | 1026 hPa | - | - | - | - |
| 1777459498 | 18.33° C | 24% | 1026 hPa | - | - | - | - |
| 1777458579 | 18.33° C | 25% | 1026.3 hPa | - | - | - | - |
| 1777458273 | 17.78° C | 24% | 1026.2 hPa | - | - | - | - |
| 1777457966 | 17.78° C | 23% | 1026.3 hPa | - | - | - | - |
| 1777457660 | 18.33° C | 23% | 1026.2 hPa | - | - | - | - |
| 1777457353 | 18.89° C | 23% | 1026.2 hPa | - | - | - | - |
| 1777457046 | 18.89° C | 24% | 1026.2 hPa | - | - | - | - |
| 1777456740 | 18.89° C | 23% | 1026.3 hPa | - | - | - | - |
| 1777456433 | 18.89° C | 24% | 1026.4 hPa | - | - | - | - |
| 1777456127 | 18.33° C | 23% | 1026.4 hPa | - | - | - | - |
| 1777455821 | 18.89° C | 23% | 1026.3 hPa | - | - | - | - |
| 1777455514 | 18.89° C | 24% | 1026.3 hPa | - | - | - | - |
| 1777455207 | 18.89° C | 24% | 1026.4 hPa | - | - | - | - |
| 1777454901 | 18.89° C | 24% | 1026.4 hPa | - | - | - | - |
| 1777454594 | 18.89° C | 24% | 1026.4 hPa | - | - | - | - |
| 1777454288 | 18.89° C | 24% | 1026.4 hPa | - | - | - | - |
| 1777453981 | 18.89° C | 25% | 1026.6 hPa | - | - | - | - |
| 1777453675 | 18.33° C | 25% | 1026.6 hPa | - | - | - | - |
| 1777453369 | 17.78° C | 26% | 1026.6 hPa | - | - | - | - |
| 1777453062 | 17.78° C | 26% | 1026.6 hPa | - | - | - | - |
| 1777452756 | 17.78° C | 26% | 1026.6 hPa | - | - | - | - |
* Rain since midnight (hover to see other rain measurements)
** Current wind speed in m/s (hover to see current wind gust speed)